owner,sensor,date,latitude,longitude,vertical_datum,sea_water_temperature,qcFlag
Shell,ioos:station:wmo:42864:2,2021-12-09T21:07:00Z,28.0109,-89.0120,11.0,26.7,11111222
Shell,ioos:station:wmo:42864:2,2021-12-09T21:17:00Z,28.0109,-89.0120,11.0,26.8,11111222
Shell,ioos:station:wmo:42864:2,2021-12-09T21:27:00Z,28.0109,-89.0120,11.0,26.7,11111222
Shell,ioos:station:wmo:42864:2,2021-12-09T21:35:00Z,28.0109,-89.0120,11.0,26.8,11111222
Shell,ioos:station:wmo:42864:2,2021-12-09T21:45:00Z,28.0109,-89.0120,11.0,26.7,11111222
Shell,ioos:station:wmo:42864:2,2021-12-09T21:57:00Z,28.0109,-89.0120,11.0,26.7,11111222
Shell,ioos:station:wmo:42864:2,2021-12-10T00:03:00Z,28.0109,-89.0120,11.0,26.6,11111222
Shell,ioos:station:wmo:42864:2,2021-12-10T00:13:00Z,28.0109,-89.0120,11.0,26.7,11111222
Shell,ioos:station:wmo:42864:2,2021-12-10T00:23:00Z,28.0109,-89.0120,11.0,26.7,11111222
Shell,ioos:station:wmo:42864:2,2021-12-10T00:33:00Z,28.0109,-89.0120,11.0,26.7,11111222
Shell,ioos:station:wmo:42864:2,2021-12-10T00:43:00Z,28.0109,-89.0120,11.0,26.7,11111222
Shell,ioos:station:wmo:42864:2,2021-12-10T02:55:00Z,28.0109,-89.0120,11.0,26.6,11111222
Shell,ioos:station:wmo:42864:2,2021-12-10T03:05:00Z,28.0109,-89.0120,11.0,26.5,11111222
Shell,ioos:station:wmo:42864:2,2021-12-10T03:15:00Z,28.0109,-89.0120,11.0,26.6,11111222
Shell,ioos:station:wmo:42864:2,2021-12-10T03:25:00Z,28.0109,-89.0120,11.0,26.5,11111222
Shell,ioos:station:wmo:42864:2,2021-12-10T03:35:00Z,28.0109,-89.0120,11.0,26.5,11111222
Shell,ioos:station:wmo:42864:2,2021-12-10T03:45:00Z,28.0109,-89.0120,11.0,26.5,11111222
Shell,ioos:station:wmo:42864:2,2021-12-10T03:55:00Z,28.0109,-89.0120,11.0,26.5,11111222
Shell,ioos:station:wmo:42864:2,2021-12-10T04:05:00Z,28.0109,-89.0120,11.0,26.5,11111222
Shell,ioos:station:wmo:42864:2,2021-12-10T04:15:00Z,28.0109,-89.0120,11.0,26.5,11111222
Shell,ioos:station:wmo:42864:2,2021-12-10T04:28:00Z,28.0109,-89.0120,11.0,26.4,11111222
Shell,ioos:station:wmo:42864:2,2021-12-10T04:38:00Z,28.0109,-89.0120,11.0,26.4,11111222
Shell,ioos:station:wmo:42864:2,2021-12-10T04:48:00Z,28.0109,-89.0120,11.0,26.4,11111222
Shell,ioos:station:wmo:42864:2,2021-12-10T04:58:00Z,28.0109,-89.0120,11.0,26.4,11111222
Shell,ioos:station:wmo:42864:2,2021-12-10T05:08:00Z,28.0109,-89.0120,11.0,26.4,11111222
Shell,ioos:station:wmo:42864:2,2021-12-10T05:18:00Z,28.0109,-89.0120,11.0,26.4,11111222
Shell,ioos:station:wmo:42864:2,2021-12-10T05:28:00Z,28.0109,-89.0120,11.0,26.3,11111222
Shell,ioos:station:wmo:42864:2,2021-12-10T05:38:00Z,28.0109,-89.0120,11.0,26.3,11111222
Shell,ioos:station:wmo:42864:2,2021-12-10T05:48:00Z,28.0109,-89.0120,11.0,26.3,11111222
Shell,ioos:station:wmo:42864:2,2021-12-10T05:58:00Z,28.0109,-89.0120,11.0,26.3,11111222
Shell,ioos:station:wmo:42864:2,2021-12-10T06:08:00Z,28.0109,-89.0120,11.0,26.3,11111222
Shell,ioos:station:wmo:42864:2,2021-12-10T06:18:00Z,28.0109,-89.0120,11.0,26.3,11111222
Shell,ioos:station:wmo:42864:2,2021-12-10T06:28:00Z,28.0109,-89.0120,11.0,26.3,11111222
Shell,ioos:station:wmo:42864:2,2021-12-10T06:38:00Z,28.0109,-89.0120,11.0,26.3,11111222
Shell,ioos:station:wmo:42864:2,2021-12-10T06:48:00Z,28.0109,-89.0120,11.0,26.3,11111222
Shell,ioos:station:wmo:42864:2,2021-12-10T06:58:00Z,28.0109,-89.0120,11.0,26.4,11111222
Shell,ioos:station:wmo:42864:2,2021-12-10T07:08:00Z,28.0109,-89.0120,11.0,26.4,11111222
Shell,ioos:station:wmo:42864:2,2021-12-10T07:18:00Z,28.0109,-89.0120,11.0,26.4,11111222
Shell,ioos:station:wmo:42864:2,2021-12-10T07:28:00Z,28.0109,-89.0120,11.0,26.4,11111222
Shell,ioos:station:wmo:42864:2,2021-12-10T07:38:00Z,28.0109,-89.0120,11.0,26.4,11111222
Shell,ioos:station:wmo:42864:2,2021-12-10T07:48:00Z,28.0109,-89.0120,11.0,26.4,11111222
Shell,ioos:station:wmo:42864:2,2021-12-10T07:58:00Z,28.0109,-89.0120,11.0,26.4,11111222
Shell,ioos:station:wmo:42864:2,2021-12-10T08:08:00Z,28.0109,-89.0120,11.0,26.4,11111222
Shell,ioos:station:wmo:42864:2,2021-12-10T08:18:00Z,28.0109,-89.0120,11.0,26.4,11111222
Shell,ioos:station:wmo:42864:2,2021-12-10T08:28:00Z,28.0109,-89.0120,11.0,26.5,11111222
Shell,ioos:station:wmo:42864:2,2021-12-10T08:38:00Z,28.0109,-89.0120,11.0,26.5,11111222
Shell,ioos:station:wmo:42864:2,2021-12-10T08:48:00Z,28.0109,-89.0120,11.0,26.5,11111222
Shell,ioos:station:wmo:42864:2,2021-12-10T08:58:00Z,28.0109,-89.0120,11.0,26.5,11111222
Shell,ioos:station:wmo:42864:2,2021-12-10T09:08:00Z,28.0109,-89.0120,11.0,26.5,11111222
Shell,ioos:station:wmo:42864:2,2021-12-10T09:18:00Z,28.0109,-89.0120,11.0,26.5,11111222
Shell,ioos:station:wmo:42864:2,2021-12-10T09:28:00Z,28.0109,-89.0120,11.0,26.5,11111222
Shell,ioos:station:wmo:42864:2,2021-12-10T09:38:00Z,28.0109,-89.0120,11.0,26.5,11111222
Shell,ioos:station:wmo:42864:2,2021-12-10T09:48:00Z,28.0109,-89.0120,11.0,26.5,11111222
Shell,ioos:station:wmo:42864:2,2021-12-10T09:58:00Z,28.0109,-89.0120,11.0,26.5,11111222
Shell,ioos:station:wmo:42864:2,2021-12-10T10:08:00Z,28.0109,-89.0120,11.0,26.5,11111222
Shell,ioos:station:wmo:42864:2,2021-12-10T10:18:00Z,28.0109,-89.0120,11.0,26.5,11111222
Shell,ioos:station:wmo:42864:2,2021-12-10T10:28:00Z,28.0109,-89.0120,11.0,26.5,11111222
Shell,ioos:station:wmo:42864:2,2021-12-10T10:38:00Z,28.0109,-89.0120,11.0,26.5,11111222
Shell,ioos:station:wmo:42864:2,2021-12-10T10:48:00Z,28.0109,-89.0120,11.0,26.5,11111222
Shell,ioos:station:wmo:42864:2,2021-12-10T10:58:00Z,28.0109,-89.0120,11.0,26.5,11111222
Shell,ioos:station:wmo:42864:2,2021-12-10T11:08:00Z,28.0109,-89.0120,11.0,26.5,11111222
Shell,ioos:station:wmo:42864:2,2021-12-10T11:18:00Z,28.0109,-89.0120,11.0,26.5,11111222
Shell,ioos:station:wmo:42864:2,2021-12-10T11:28:00Z,28.0109,-89.0120,11.0,26.5,11111222
Shell,ioos:station:wmo:42864:2,2021-12-10T11:38:00Z,28.0109,-89.0120,11.0,26.5,11111222
Shell,ioos:station:wmo:42864:2,2021-12-10T11:48:00Z,28.0109,-89.0120,11.0,26.5,11111222
Shell,ioos:station:wmo:42864:2,2021-12-10T11:58:00Z,28.0109,-89.0120,11.0,26.5,11111222
Shell,ioos:station:wmo:42864:2,2021-12-10T12:08:00Z,28.0109,-89.0120,11.0,26.5,11111222
Shell,ioos:station:wmo:42864:2,2021-12-10T12:18:00Z,28.0109,-89.0120,11.0,26.5,11111222
Shell,ioos:station:wmo:42864:2,2021-12-10T12:28:00Z,28.0109,-89.0120,11.0,26.5,11111222
Shell,ioos:station:wmo:42864:2,2021-12-10T12:38:00Z,28.0109,-89.0120,11.0,26.5,11111222
Shell,ioos:station:wmo:42864:2,2021-12-10T12:48:00Z,28.0109,-89.0120,11.0,26.5,11111222
Shell,ioos:station:wmo:42864:2,2021-12-10T13:37:00Z,28.0109,-89.0120,11.0,26.5,11111222
Shell,ioos:station:wmo:42864:2,2021-12-10T13:47:00Z,28.0109,-89.0120,11.0,26.5,11111222
Shell,ioos:station:wmo:42864:2,2021-12-10T14:30:00Z,28.0109,-89.0120,11.0,26.5,11111222
Shell,ioos:station:wmo:42864:2,2021-12-10T14:40:00Z,28.0109,-89.0120,11.0,26.5,11111222
Shell,ioos:station:wmo:42864:2,2021-12-10T14:50:00Z,28.0109,-89.0120,11.0,26.5,11111222
Shell,ioos:station:wmo:42864:2,2021-12-10T15:00:00Z,28.0109,-89.0120,11.0,26.5,11111222
Shell,ioos:station:wmo:42864:2,2021-12-10T15:10:00Z,28.0109,-89.0120,11.0,26.5,11111222
Shell,ioos:station:wmo:42864:2,2021-12-10T15:20:00Z,28.0109,-89.0120,11.0,26.5,11111222
Shell,ioos:station:wmo:42864:2,2021-12-10T15:30:00Z,28.0109,-89.0120,11.0,26.6,11111222
Shell,ioos:station:wmo:42864:2,2021-12-10T15:40:00Z,28.0109,-89.0120,11.0,26.6,11111222
Shell,ioos:station:wmo:42864:2,2021-12-10T15:50:00Z,28.0109,-89.0120,11.0,26.5,11111222
Shell,ioos:station:wmo:42864:2,2021-12-10T16:00:00Z,28.0109,-89.0120,11.0,26.6,11111222
Shell,ioos:station:wmo:42864:2,2021-12-10T16:10:00Z,28.0109,-89.0120,11.0,26.6,11111222
Shell,ioos:station:wmo:42864:2,2021-12-10T16:20:00Z,28.0109,-89.0120,11.0,26.6,11111222
Shell,ioos:station:wmo:42864:2,2021-12-10T16:30:00Z,28.0109,-89.0120,11.0,26.6,11111222
Shell,ioos:station:wmo:42864:2,2021-12-10T16:40:00Z,28.0109,-89.0120,11.0,26.6,11111222
Shell,ioos:station:wmo:42864:2,2021-12-10T16:50:00Z,28.0109,-89.0120,11.0,26.6,11111222
Shell,ioos:station:wmo:42864:2,2021-12-10T17:00:00Z,28.0109,-89.0120,11.0,26.6,11111222
Shell,ioos:station:wmo:42864:2,2021-12-10T17:10:00Z,28.0109,-89.0120,11.0,26.6,11111222
Shell,ioos:station:wmo:42864:2,2021-12-10T17:20:00Z,28.0109,-89.0120,11.0,26.6,11111222
Shell,ioos:station:wmo:42864:2,2021-12-10T17:30:00Z,28.0109,-89.0120,11.0,26.6,11111222
Shell,ioos:station:wmo:42864:2,2021-12-10T17:40:00Z,28.0109,-89.0120,11.0,26.6,11111222
Shell,ioos:station:wmo:42864:2,2021-12-10T17:50:00Z,28.0109,-89.0120,11.0,26.6,11111222
Shell,ioos:station:wmo:42864:2,2021-12-10T18:00:00Z,28.0109,-89.0120,11.0,26.6,11111222
Shell,ioos:station:wmo:42864:2,2021-12-10T18:10:00Z,28.0109,-89.0120,11.0,26.6,11111222
Shell,ioos:station:wmo:42864:2,2021-12-10T18:20:00Z,28.0109,-89.0120,11.0,26.6,11111222
Shell,ioos:station:wmo:42864:2,2021-12-10T18:30:00Z,28.0109,-89.0120,11.0,26.6,11111222
Shell,ioos:station:wmo:42864:2,2021-12-10T18:40:00Z,28.0109,-89.0120,11.0,26.6,11111222
Shell,ioos:station:wmo:42864:2,2021-12-10T18:50:00Z,28.0109,-89.0120,11.0,26.7,11111222
Shell,ioos:station:wmo:42864:2,2021-12-10T19:00:00Z,28.0109,-89.0120,11.0,26.6,11111222
Shell,ioos:station:wmo:42864:2,2021-12-10T19:10:00Z,28.0109,-89.0120,11.0,26.7,11111222
Shell,ioos:station:wmo:42864:2,2021-12-10T19:20:00Z,28.0109,-89.0120,11.0,26.6,11111222
Shell,ioos:station:wmo:42864:2,2021-12-10T19:30:00Z,28.0109,-89.0120,11.0,26.6,11111222
Shell,ioos:station:wmo:42864:2,2021-12-10T19:40:00Z,28.0109,-89.0120,11.0,26.6,11111222
Shell,ioos:station:wmo:42864:2,2021-12-10T19:50:00Z,28.0109,-89.0120,11.0,26.5,11111222
Shell,ioos:station:wmo:42864:2,2021-12-10T20:00:00Z,28.0109,-89.0120,11.0,26.6,11111222
Shell,ioos:station:wmo:42864:2,2021-12-10T20:10:00Z,28.0109,-89.0120,11.0,26.6,11111222
Shell,ioos:station:wmo:42864:2,2021-12-10T20:20:00Z,28.0109,-89.0120,11.0,26.6,11111222
Shell,ioos:station:wmo:42864:2,2021-12-10T20:30:00Z,28.0109,-89.0120,11.0,26.6,11111222
Shell,ioos:station:wmo:42864:2,2021-12-10T20:40:00Z,28.0109,-89.0120,11.0,26.6,11111222
Shell,ioos:station:wmo:42864:2,2021-12-10T20:50:00Z,28.0109,-89.0120,11.0,26.6,11111222
Shell,ioos:station:wmo:42864:2,2021-12-10T21:00:00Z,28.0109,-89.0120,11.0,26.6,11111222
Shell,ioos:station:wmo:42864:2,2021-12-10T21:10:00Z,28.0109,-89.0120,11.0,26.6,11111222
Shell,ioos:station:wmo:42864:2,2021-12-10T21:19:00Z,28.0109,-89.0120,11.0,26.6,11111222
Shell,ioos:station:wmo:42864:2,2021-12-10T21:30:00Z,28.0109,-89.0120,11.0,26.7,11111222
Shell,ioos:station:wmo:42864:2,2021-12-10T21:39:00Z,28.0109,-89.0120,11.0,26.7,11111222
Shell,ioos:station:wmo:42864:2,2021-12-15T22:29:00Z,28.0109,-89.0120,11.0,25.1,11111222
Shell,ioos:station:wmo:42864:2,2021-12-15T22:39:00Z,28.0109,-89.0120,11.0,25.1,11111222
Shell,ioos:station:wmo:42864:2,2021-12-15T22:49:00Z,28.0109,-89.0120,11.0,25.1,11111222
Shell,ioos:station:wmo:42864:2,2021-12-15T22:59:00Z,28.0109,-89.0120,11.0,25.1,11111222
Shell,ioos:station:wmo:42864:2,2021-12-15T23:09:00Z,28.0109,-89.0120,11.0,25.0,11111222
Shell,ioos:station:wmo:42864:2,2021-12-15T23:19:00Z,28.0109,-89.0120,11.0,25.0,11111222
Shell,ioos:station:wmo:42864:2,2021-12-15T23:29:00Z,28.0109,-89.0120,11.0,25.1,11111222
Shell,ioos:station:wmo:42864:2,2021-12-15T23:39:00Z,28.0109,-89.0120,11.0,25.1,11111222
Shell,ioos:station:wmo:42864:2,2021-12-15T23:49:00Z,28.0109,-89.0120,11.0,25.1,11111222
Shell,ioos:station:wmo:42864:2,2021-12-15T23:59:00Z,28.0109,-89.0120,11.0,25.1,11111222
Shell,ioos:station:wmo:42864:2,2021-12-16T00:09:00Z,28.0109,-89.0120,11.0,25.0,11111222
Shell,ioos:station:wmo:42864:2,2021-12-16T00:19:00Z,28.0109,-89.0120,11.0,25.0,11111222
Shell,ioos:station:wmo:42864:2,2021-12-16T00:29:00Z,28.0109,-89.0120,11.0,25.0,11111222
Shell,ioos:station:wmo:42864:2,2021-12-16T00:39:00Z,28.0109,-89.0120,11.0,25.1,11111222
Shell,ioos:station:wmo:42864:2,2021-12-16T00:49:00Z,28.0109,-89.0120,11.0,25.1,11111222
Shell,ioos:station:wmo:42864:2,2021-12-16T00:59:00Z,28.0109,-89.0120,11.0,25.1,11111222
Shell,ioos:station:wmo:42864:2,2021-12-16T01:09:00Z,28.0109,-89.0120,11.0,25.0,11111222
Shell,ioos:station:wmo:42864:2,2021-12-16T01:19:00Z,28.0109,-89.0120,11.0,25.0,11111222
Shell,ioos:station:wmo:42864:2,2021-12-16T01:29:00Z,28.0109,-89.0120,11.0,25.1,11111222
Shell,ioos:station:wmo:42864:2,2021-12-16T01:39:00Z,28.0109,-89.0120,11.0,25.0,11111222
Shell,ioos:station:wmo:42864:2,2021-12-16T01:49:00Z,28.0109,-89.0120,11.0,25.0,11111222
Shell,ioos:station:wmo:42864:2,2021-12-16T01:59:00Z,28.0109,-89.0120,11.0,25.0,11111222
Shell,ioos:station:wmo:42864:2,2021-12-16T02:09:00Z,28.0109,-89.0120,11.0,25.0,11111222
Shell,ioos:station:wmo:42864:2,2021-12-16T02:19:00Z,28.0109,-89.0120,11.0,25.1,11111222
Shell,ioos:station:wmo:42864:2,2021-12-16T02:29:00Z,28.0109,-89.0120,11.0,25.0,11111222
Shell,ioos:station:wmo:42864:2,2021-12-16T02:39:00Z,28.0109,-89.0120,11.0,25.1,11111222
Shell,ioos:station:wmo:42864:2,2021-12-16T02:49:00Z,28.0109,-89.0120,11.0,25.1,11111222
Shell,ioos:station:wmo:42864:2,2021-12-16T02:59:00Z,28.0109,-89.0120,11.0,25.0,11111222
Shell,ioos:station:wmo:42864:2,2021-12-16T03:09:00Z,28.0109,-89.0120,11.0,25.0,11111222
Shell,ioos:station:wmo:42864:2,2021-12-16T03:19:00Z,28.0109,-89.0120,11.0,25.1,11111222
Shell,ioos:station:wmo:42864:2,2021-12-16T03:29:00Z,28.0109,-89.0120,11.0,25.0,11111222
Shell,ioos:station:wmo:42864:2,2021-12-16T03:39:00Z,28.0109,-89.0120,11.0,25.0,11111222
Shell,ioos:station:wmo:42864:2,2021-12-16T03:49:00Z,28.0109,-89.0120,11.0,25.0,11111222
Shell,ioos:station:wmo:42864:2,2021-12-16T03:59:00Z,28.0109,-89.0120,11.0,25.1,11111222
Shell,ioos:station:wmo:42864:2,2021-12-16T04:09:00Z,28.0109,-89.0120,11.0,25.0,11111222
Shell,ioos:station:wmo:42864:2,2021-12-16T04:19:00Z,28.0109,-89.0120,11.0,25.0,11111222
Shell,ioos:station:wmo:42864:2,2021-12-16T04:29:00Z,28.0109,-89.0120,11.0,25.0,11111222
Shell,ioos:station:wmo:42864:2,2021-12-16T04:39:00Z,28.0109,-89.0120,11.0,25.0,11111222
Shell,ioos:station:wmo:42864:2,2021-12-16T04:49:00Z,28.0109,-89.0120,11.0,25.0,11111222
Shell,ioos:station:wmo:42864:2,2021-12-16T04:59:00Z,28.0109,-89.0120,11.0,25.0,11111222
Shell,ioos:station:wmo:42864:2,2021-12-16T05:09:00Z,28.0109,-89.0120,11.0,25.0,11111222
Shell,ioos:station:wmo:42864:2,2021-12-16T05:19:00Z,28.0109,-89.0120,11.0,25.0,11111222
Shell,ioos:station:wmo:42864:2,2021-12-16T05:29:00Z,28.0109,-89.0120,11.0,25.1,11111222
Shell,ioos:station:wmo:42864:2,2021-12-16T05:39:00Z,28.0109,-89.0120,11.0,25.1,11111222
Shell,ioos:station:wmo:42864:2,2021-12-16T05:49:00Z,28.0109,-89.0120,11.0,25.0,11111222
Shell,ioos:station:wmo:42864:2,2021-12-16T05:59:00Z,28.0109,-89.0120,11.0,25.0,11111222
Shell,ioos:station:wmo:42864:2,2021-12-16T06:09:00Z,28.0109,-89.0120,11.0,25.1,11111222
Shell,ioos:station:wmo:42864:2,2021-12-16T06:19:00Z,28.0109,-89.0120,11.0,25.0,11111222
Shell,ioos:station:wmo:42864:2,2021-12-16T06:29:00Z,28.0109,-89.0120,11.0,25.0,11111222
Shell,ioos:station:wmo:42864:2,2021-12-16T06:39:00Z,28.0109,-89.0120,11.0,25.0,11111222
Shell,ioos:station:wmo:42864:2,2021-12-16T06:49:00Z,28.0109,-89.0120,11.0,25.0,11111222
Shell,ioos:station:wmo:42864:2,2021-12-16T06:59:00Z,28.0109,-89.0120,11.0,25.0,11111222
Shell,ioos:station:wmo:42864:2,2021-12-16T07:09:00Z,28.0109,-89.0120,11.0,25.0,11111222
Shell,ioos:station:wmo:42864:2,2021-12-16T07:19:00Z,28.0109,-89.0120,11.0,25.0,11111222
Shell,ioos:station:wmo:42864:2,2021-12-16T07:29:00Z,28.0109,-89.0120,11.0,25.1,11111222
Shell,ioos:station:wmo:42864:2,2021-12-16T07:39:00Z,28.0109,-89.0120,11.0,25.1,11111222
Shell,ioos:station:wmo:42864:2,2021-12-16T07:49:00Z,28.0109,-89.0120,11.0,25.0,11111222
Shell,ioos:station:wmo:42864:2,2021-12-16T07:59:00Z,28.0109,-89.0120,11.0,25.0,11111222
Shell,ioos:station:wmo:42864:2,2021-12-16T08:09:00Z,28.0109,-89.0120,11.0,25.0,11111222
Shell,ioos:station:wmo:42864:2,2021-12-16T08:19:00Z,28.0109,-89.0120,11.0,25.0,11111222
Shell,ioos:station:wmo:42864:2,2021-12-16T08:29:00Z,28.0109,-89.0120,11.0,25.0,11111222
Shell,ioos:station:wmo:42864:2,2021-12-16T08:39:00Z,28.0109,-89.0120,11.0,24.9,11111222
Shell,ioos:station:wmo:42864:2,2021-12-16T08:49:00Z,28.0109,-89.0120,11.0,25.0,11111222
Shell,ioos:station:wmo:42864:2,2021-12-16T08:59:00Z,28.0109,-89.0120,11.0,25.0,11111222
Shell,ioos:station:wmo:42864:2,2021-12-16T09:09:00Z,28.0109,-89.0120,11.0,24.9,11111222
Shell,ioos:station:wmo:42864:2,2021-12-16T09:19:00Z,28.0109,-89.0120,11.0,25.0,11111222
Shell,ioos:station:wmo:42864:2,2021-12-16T09:29:00Z,28.0109,-89.0120,11.0,25.0,11111222
Shell,ioos:station:wmo:42864:2,2021-12-16T09:39:00Z,28.0109,-89.0120,11.0,25.0,11111222
Shell,ioos:station:wmo:42864:2,2021-12-16T09:49:00Z,28.0109,-89.0120,11.0,25.0,11111222
Shell,ioos:station:wmo:42864:2,2021-12-16T09:59:00Z,28.0109,-89.0120,11.0,25.0,11111222
Shell,ioos:station:wmo:42864:2,2021-12-16T10:09:00Z,28.0109,-89.0120,11.0,24.9,11111222
Shell,ioos:station:wmo:42864:2,2021-12-16T10:19:00Z,28.0109,-89.0120,11.0,25.0,11111222
Shell,ioos:station:wmo:42864:2,2021-12-16T10:29:00Z,28.0109,-89.0120,11.0,25.0,11111222
Shell,ioos:station:wmo:42864:2,2021-12-16T10:39:00Z,28.0109,-89.0120,11.0,24.9,11111222
Shell,ioos:station:wmo:42864:2,2021-12-16T10:49:00Z,28.0109,-89.0120,11.0,25.0,11111222
Shell,ioos:station:wmo:42864:2,2021-12-16T10:59:00Z,28.0109,-89.0120,11.0,25.0,11111222
Shell,ioos:station:wmo:42864:2,2021-12-16T11:09:00Z,28.0109,-89.0120,11.0,25.0,11111222
Shell,ioos:station:wmo:42864:2,2021-12-16T11:19:00Z,28.0109,-89.0120,11.0,25.0,11111222
Shell,ioos:station:wmo:42864:2,2021-12-16T11:29:00Z,28.0109,-89.0120,11.0,25.0,11111222
Shell,ioos:station:wmo:42864:2,2021-12-16T11:39:00Z,28.0109,-89.0120,11.0,25.0,11111222
Shell,ioos:station:wmo:42864:2,2021-12-16T11:49:00Z,28.0109,-89.0120,11.0,25.0,11111222
Shell,ioos:station:wmo:42864:2,2021-12-16T11:59:00Z,28.0109,-89.0120,11.0,25.0,11111222
Shell,ioos:station:wmo:42864:2,2021-12-16T12:09:00Z,28.0109,-89.0120,11.0,25.0,11111222
Shell,ioos:station:wmo:42864:2,2021-12-16T12:19:00Z,28.0109,-89.0120,11.0,25.0,11111222
Shell,ioos:station:wmo:42864:2,2021-12-16T12:29:00Z,28.0109,-89.0120,11.0,25.0,11111222
Shell,ioos:station:wmo:42864:2,2021-12-16T12:39:00Z,28.0109,-89.0120,11.0,25.0,11111222
Shell,ioos:station:wmo:42864:2,2021-12-16T12:49:00Z,28.0109,-89.0120,11.0,25.0,11111222
Shell,ioos:station:wmo:42864:2,2021-12-16T12:59:00Z,28.0109,-89.0120,11.0,24.9,11111222
Shell,ioos:station:wmo:42864:2,2021-12-16T13:09:00Z,28.0109,-89.0120,11.0,25.0,11111222
Shell,ioos:station:wmo:42864:2,2021-12-16T13:19:00Z,28.0109,-89.0120,11.0,25.0,11111222
Shell,ioos:station:wmo:42864:2,2021-12-16T13:29:00Z,28.0109,-89.0120,11.0,24.9,11111222
Shell,ioos:station:wmo:42864:2,2021-12-16T13:39:00Z,28.0109,-89.0120,11.0,24.9,11111222
Shell,ioos:station:wmo:42864:2,2021-12-16T13:49:00Z,28.0109,-89.0120,11.0,24.9,11111222
Shell,ioos:station:wmo:42864:2,2021-12-16T13:59:00Z,28.0109,-89.0120,11.0,24.9,11111222
Shell,ioos:station:wmo:42864:2,2021-12-16T14:09:00Z,28.0109,-89.0120,11.0,24.9,11111222
Shell,ioos:station:wmo:42864:2,2021-12-16T14:19:00Z,28.0109,-89.0120,11.0,24.9,11111222
Shell,ioos:station:wmo:42864:2,2021-12-16T14:29:00Z,28.0109,-89.0120,11.0,24.9,11111222
Shell,ioos:station:wmo:42864:2,2021-12-16T14:39:00Z,28.0109,-89.0120,11.0,25.0,11111222
Shell,ioos:station:wmo:42864:2,2021-12-16T14:49:00Z,28.0109,-89.0120,11.0,24.9,11111222
Shell,ioos:station:wmo:42864:2,2021-12-16T14:59:00Z,28.0109,-89.0120,11.0,24.9,11111222
Shell,ioos:station:wmo:42864:2,2021-12-16T15:09:00Z,28.0109,-89.0120,11.0,24.9,11111222
Shell,ioos:station:wmo:42864:2,2021-12-16T15:19:00Z,28.0109,-89.0120,11.0,24.9,11111222
Shell,ioos:station:wmo:42864:2,2021-12-16T15:29:00Z,28.0109,-89.0120,11.0,25.0,11111222
Shell,ioos:station:wmo:42864:2,2021-12-16T15:39:00Z,28.0109,-89.0120,11.0,25.0,11111222
Shell,ioos:station:wmo:42864:2,2021-12-16T15:49:00Z,28.0109,-89.0120,11.0,24.9,11111222
Shell,ioos:station:wmo:42864:2,2021-12-16T15:59:00Z,28.0109,-89.0120,11.0,24.9,11111222
Shell,ioos:station:wmo:42864:2,2021-12-16T16:09:00Z,28.0109,-89.0120,11.0,25.0,11111222
Shell,ioos:station:wmo:42864:2,2021-12-16T16:19:00Z,28.0109,-89.0120,11.0,24.9,11111222
Shell,ioos:station:wmo:42864:2,2021-12-16T16:29:00Z,28.0109,-89.0120,11.0,24.9,11111222
Shell,ioos:station:wmo:42864:2,2021-12-16T16:39:00Z,28.0109,-89.0120,11.0,25.0,11111222
Shell,ioos:station:wmo:42864:2,2021-12-16T16:49:00Z,28.0109,-89.0120,11.0,24.9,11111222
Shell,ioos:station:wmo:42864:2,2021-12-16T16:59:00Z,28.0109,-89.0120,11.0,25.0,11111222
Shell,ioos:station:wmo:42864:2,2021-12-16T17:09:00Z,28.0109,-89.0120,11.0,24.9,11111222
Shell,ioos:station:wmo:42864:2,2021-12-16T17:19:00Z,28.0109,-89.0120,11.0,24.9,11111222
Shell,ioos:station:wmo:42864:2,2021-12-16T17:29:00Z,28.0109,-89.0120,11.0,25.0,11111222
Shell,ioos:station:wmo:42864:2,2021-12-16T17:39:00Z,28.0109,-89.0120,11.0,24.9,11111222
Shell,ioos:station:wmo:42864:2,2021-12-16T17:49:00Z,28.0109,-89.0120,11.0,25.0,11111222
Shell,ioos:station:wmo:42864:2,2021-12-16T17:59:00Z,28.0109,-89.0120,11.0,25.0,11111222
Shell,ioos:station:wmo:42864:2,2021-12-16T18:09:00Z,28.0109,-89.0120,11.0,25.0,11111222
Shell,ioos:station:wmo:42864:2,2021-12-16T18:19:00Z,28.0109,-89.0120,11.0,25.0,11111222
Shell,ioos:station:wmo:42864:2,2021-12-16T18:29:00Z,28.0109,-89.0120,11.0,25.0,11111222
Shell,ioos:station:wmo:42864:2,2021-12-16T18:39:00Z,28.0109,-89.0120,11.0,25.0,11111222
Shell,ioos:station:wmo:42864:2,2021-12-16T18:49:00Z,28.0109,-89.0120,11.0,25.0,11111222
Shell,ioos:station:wmo:42864:2,2021-12-16T18:59:00Z,28.0109,-89.0120,11.0,25.0,11111222
Shell,ioos:station:wmo:42864:2,2021-12-16T19:09:00Z,28.0109,-89.0120,11.0,25.0,11111222
Shell,ioos:station:wmo:42864:2,2021-12-16T19:19:00Z,28.0109,-89.0120,11.0,25.0,11111222
Shell,ioos:station:wmo:42864:2,2021-12-16T19:29:00Z,28.0109,-89.0120,11.0,25.0,11111222
Shell,ioos:station:wmo:42864:2,2021-12-16T19:39:00Z,28.0109,-89.0120,11.0,25.0,11111222
Shell,ioos:station:wmo:42864:2,2021-12-16T19:49:00Z,28.0109,-89.0120,11.0,25.1,11111222
Shell,ioos:station:wmo:42864:2,2021-12-16T19:59:00Z,28.0109,-89.0120,11.0,25.1,11111222
Shell,ioos:station:wmo:42864:2,2021-12-16T20:09:00Z,28.0109,-89.0120,11.0,25.1,11111222
Shell,ioos:station:wmo:42864:2,2021-12-16T20:19:00Z,28.0109,-89.0120,11.0,25.1,11111222
Shell,ioos:station:wmo:42864:2,2021-12-16T20:29:00Z,28.0109,-89.0120,11.0,25.1,11111222
Shell,ioos:station:wmo:42864:2,2021-12-16T20:39:00Z,28.0109,-89.0120,11.0,25.2,11111222
Shell,ioos:station:wmo:42864:2,2021-12-16T20:49:00Z,28.0109,-89.0120,11.0,25.1,11111222
Shell,ioos:station:wmo:42864:2,2021-12-16T20:59:00Z,28.0109,-89.0120,11.0,25.1,11111222
Shell,ioos:station:wmo:42864:2,2021-12-16T21:09:00Z,28.0109,-89.0120,11.0,25.1,11111222
Shell,ioos:station:wmo:42864:2,2021-12-16T21:19:00Z,28.0109,-89.0120,11.0,25.1,11111222
Shell,ioos:station:wmo:42864:2,2021-12-16T21:29:00Z,28.0109,-89.0120,11.0,25.1,11111222
Shell,ioos:station:wmo:42864:2,2021-12-16T21:39:00Z,28.0109,-89.0120,11.0,25.1,11111222
Shell,ioos:station:wmo:42864:2,2021-12-16T21:49:00Z,28.0109,-89.0120,11.0,25.1,11111222
Shell,ioos:station:wmo:42864:2,2021-12-16T21:59:00Z,28.0109,-89.0120,11.0,25.1,11111222
Shell,ioos:station:wmo:42864:2,2021-12-16T22:09:00Z,28.0109,-89.0120,11.0,25.1,11111222
Shell,ioos:station:wmo:42864:2,2021-12-16T22:19:00Z,28.0109,-89.0120,11.0,25.1,11111222
Shell,ioos:station:wmo:42864:2,2021-12-16T22:29:00Z,28.0109,-89.0120,11.0,25.1,11111222
Shell,ioos:station:wmo:42864:2,2021-12-16T22:39:00Z,28.0109,-89.0120,11.0,25.1,11111222
Shell,ioos:station:wmo:42864:2,2021-12-16T22:49:00Z,28.0109,-89.0120,11.0,25.1,11111222
Shell,ioos:station:wmo:42864:2,2021-12-16T22:59:00Z,28.0109,-89.0120,11.0,25.1,11111222
Shell,ioos:station:wmo:42864:2,2021-12-16T23:09:00Z,28.0109,-89.0120,11.0,25.1,11111222
Shell,ioos:station:wmo:42864:2,2021-12-16T23:19:00Z,28.0109,-89.0120,11.0,25.1,11111222
Shell,ioos:station:wmo:42864:2,2021-12-16T23:29:00Z,28.0109,-89.0120,11.0,25.1,11111222